Voltar ao catálogo

SL-12 DEB

AtivoHEO
NORAD 29328·DEBRIS·🇷🇺 Russia

Lançado May 31, 1989 de Baikonur Cosmodrome

Loading…

Próximas Passagens (próximas 24 horas)

TLE

AtualizadoSource: Space-Track

Época: Sep 13, 2026, 22:24 UTC

1 29328U 89039AK  26256.93386927  .00000277  00000-0  52306-2 0  9995
2 29328  65.2846 165.3258 5450165  91.7543 356.6117  4.29098963314762

Acompanhe SL-12 DEB em tempo real com AllMySat

Download on the App Store